CXA103 NWWE-NWWH

Flight info

Callsign CXA103
Flight time N/A
Altitude FL070
Route NWWE NWWH GPS DIRECT
Aircraft DC3/M-L/L

Departure

Time 2026-05-05 17:22
Airport Île des Pins Airport (NWWE)

Arrival

Time N/A
Airport NWWH
Time Latitude Longitude Altitude Speed Heading
2026-05-05 17:17 -22.59092 167.46088 325 ft 0 kts 294°
2026-05-05 17:22 -22.59045 167.45974 326 ft 49 kts 292°
2026-05-05 17:22 -22.58823 167.45452 395 ft 94 kts 291°
2026-05-05 17:22 -22.58538 167.44821 944 ft 84 kts 292°
2026-05-05 17:23 -22.58294 167.44329 1548 ft 72 kts 294°
2026-05-05 17:23 -22.58028 167.43809 1917 ft 86 kts 295°
2026-05-05 17:23 -22.57740 167.43255 2438 ft 80 kts 296°
2026-05-05 17:23 -22.57475 167.42758 2969 ft 75 kts 297°
2026-05-05 17:24 -22.57200 167.42249 3392 ft 82 kts 298°
2026-05-05 17:24 -22.57041 167.41956 3651 ft 82 kts 298°
2026-05-05 17:24 -22.56756 167.41439 4154 ft 79 kts 299°
2026-05-05 17:24 -22.56470 167.40929 4580 ft 80 kts 299°
2026-05-05 17:25 -22.56169 167.40395 4876 ft 87 kts 299°
2026-05-05 17:25 -22.55958 167.40021 5083 ft 88 kts 300°
2026-05-05 17:25 -22.55540 167.39286 5548 ft 85 kts 300°
2026-05-05 17:25 -22.55223 167.38732 5841 ft 88 kts 300°
2026-05-05 17:26 -22.54899 167.38166 6156 ft 88 kts 300°
2026-05-05 17:26 -22.54579 167.37607 6475 ft 88 kts 300°
2026-05-05 17:26 -22.54254 167.37040 6763 ft 90 kts 300°
2026-05-05 17:26 -22.53926 167.36467 7067 ft 89 kts 300°
2026-05-05 17:27 -22.53601 167.35899 7364 ft 89 kts 300°
2026-05-05 17:27 -22.53273 167.35323 7642 ft 90 kts 300°
2026-05-05 17:27 -22.52943 167.34743 7898 ft 91 kts 300°
2026-05-05 17:27 -22.52612 167.34155 8152 ft 92 kts 300°
2026-05-05 17:28 -22.52280 167.33566 8413 ft 92 kts 300°
2026-05-05 17:28 -22.51949 167.32975 8659 ft 93 kts 300°
2026-05-05 17:28 -22.51614 167.32376 8882 ft 95 kts 300°
2026-05-05 17:28 -22.51258 167.31736 9040 ft 103 kts 300°
2026-05-05 17:29 -22.50875 167.31044 9142 ft 113 kts 300°
2026-05-05 17:29 -22.50459 167.30288 9248 ft 119 kts 300°
2026-05-05 17:29 -22.50041 167.29529 9444 ft 115 kts 300°
2026-05-05 17:29 -22.49636 167.28791 9584 ft 115 kts 300°
2026-05-05 17:30 -22.49222 167.28036 9622 ft 120 kts 300°
2026-05-05 17:30 -22.48820 167.27304 9703 ft 120 kts 300°
2026-05-05 17:30 -22.48284 167.26623 9796 ft 121 kts 313°
2026-05-05 17:30 -22.47651 167.26028 9895 ft 120 kts 316°
2026-05-05 17:31 -22.47010 167.25462 10008 ft 119 kts 317°
2026-05-05 17:31 -22.46356 167.24910 10063 ft 122 kts 319°
2026-05-05 17:31 -22.45643 167.24319 9931 ft 136 kts 319°
2026-05-05 17:31 -22.44880 167.23691 9885 ft 140 kts 319°
2026-05-05 17:32 -22.44048 167.23008 9506 ft 160 kts 320°
2026-05-05 17:32 -22.43141 167.22262 9176 ft 169 kts 320°
2026-05-05 17:32 -22.42187 167.21477 8820 ft 176 kts 320°
2026-05-05 17:32 -22.41215 167.20679 8576 ft 175 kts 320°
2026-05-05 17:33 -22.40507 167.20101 8478 ft 171 kts 320°
2026-05-05 17:33 -22.39598 167.19361 8302 ft 169 kts 320°
2026-05-05 17:33 -22.38662 167.18602 8075 ft 171 kts 320°
2026-05-05 17:33 -22.37736 167.17817 7910 ft 168 kts 318°
2026-05-05 17:34 -22.36860 167.17001 7772 ft 165 kts 315°
2026-05-05 17:34 -22.36045 167.16160 7680 ft 161 kts 313°
2026-05-05 17:34 -22.35253 167.15309 7522 ft 162 kts 313°
2026-05-05 17:34 -22.34428 167.14475 7323 ft 165 kts 315°
2026-05-05 17:35 -22.33552 167.13654 7087 ft 168 kts 316°
2026-05-05 17:35 -22.32682 167.12852 7027 ft 162 kts 317°
2026-05-05 17:35 -22.31841 167.12079 7002 ft 156 kts 316°
2026-05-05 17:35 -22.31054 167.11326 7046 ft 149 kts 318°
2026-05-05 17:36 -22.30247 167.10660 7030 ft 149 kts 319°
2026-05-05 17:36 -22.29415 167.09952 6909 ft 153 kts 318°
2026-05-05 17:36 -22.28595 167.09256 6912 ft 150 kts 319°
2026-05-05 17:36 -22.27791 167.08560 6859 ft 151 kts 317°
2026-05-05 17:37 -22.26986 167.07795 6698 ft 156 kts 315°
2026-05-05 17:37 -22.26203 167.07038 6773 ft 147 kts 316°
2026-05-05 17:37 -22.25412 167.06352 6798 ft 146 kts 319°
2026-05-05 17:37 -22.24599 167.05704 6798 ft 146 kts 320°
2026-05-05 17:38 -22.23777 167.05066 6805 ft 146 kts 320°
2026-05-05 17:38 -22.22979 167.04402 6806 ft 145 kts 318°
2026-05-05 17:38 -22.22201 167.03716 6801 ft 146 kts 319°
2026-05-05 17:38 -22.21847 167.03441 6796 ft 146 kts 321°
2026-05-05 17:39 -22.20989 167.02848 6792 ft 147 kts 324°
2026-05-05 17:39 -22.20107 167.02294 6797 ft 147 kts 325°
2026-05-05 17:39 -22.19291 167.01758 6804 ft 146 kts 324°
2026-05-05 17:39 -22.18395 167.01093 6518 ft 173 kts 327°
2026-05-05 17:40 -22.17478 167.00327 6736 ft 160 kts 324°
2026-05-05 17:40 -22.16643 166.99567 6865 ft 158 kts 322°
2026-05-05 17:40 -22.15817 166.98773 6921 ft 160 kts 321°
2026-05-05 17:40 -22.15006 166.97964 7028 ft 159 kts 320°
2026-05-05 17:41 -22.14200 166.97138 7058 ft 163 kts 319°
2026-05-05 17:41 -22.13373 166.96278 7042 ft 168 kts 318°
2026-05-05 17:41 -22.12542 166.95405 7092 ft 167 kts 318°
2026-05-05 17:41 -22.11704 166.94518 7079 ft 171 kts 318°
2026-05-05 17:42 -22.10851 166.93611 7037 ft 174 kts 317°
2026-05-05 17:42 -22.09994 166.92696 7053 ft 173 kts 317°
2026-05-05 17:42 -22.09145 166.91786 7053 ft 173 kts 317°
2026-05-05 17:42 -22.08292 166.90864 7018 ft 175 kts 316°
2026-05-05 17:43 -22.07468 166.89902 6999 ft 175 kts 314°
2026-05-05 17:43 -22.06654 166.88932 7007 ft 174 kts 314°
2026-05-05 17:43 -22.05850 166.87964 7006 ft 173 kts 314°
2026-05-05 17:43 -22.05050 166.86995 6956 ft 173 kts 314°
2026-05-05 17:44 -22.04260 166.86032 6955 ft 171 kts 314°
2026-05-05 17:44 -22.03484 166.85081 6971 ft 168 kts 314°
2026-05-05 17:44 -22.02711 166.84133 6941 ft 170 kts 313°
2026-05-05 17:44 -22.01932 166.83175 6922 ft 170 kts 313°
2026-05-05 17:45 -22.01164 166.82228 6952 ft 167 kts 313°
2026-05-05 17:45 -22.00692 166.81647 6959 ft 167 kts 313°
2026-05-05 17:46 -22.00088 166.80901 6947 ft 168 kts 313°
2026-05-05 17:46 -21.99320 166.79953 6947 ft 167 kts 313°
2026-05-05 17:46 -21.98562 166.79019 6987 ft 165 kts 313°
2026-05-05 17:46 -21.97810 166.78102 6998 ft 165 kts 313°
2026-05-05 17:47 -21.97043 166.77171 6986 ft 166 kts 313°
2026-05-05 17:47 -21.96275 166.76240 6993 ft 166 kts 313°
2026-05-05 17:47 -21.95510 166.75317 7014 ft 165 kts 313°
2026-05-05 17:47 -21.94744 166.74392 7013 ft 166 kts 313°
2026-05-05 17:48 -21.93971 166.73462 6991 ft 168 kts 313°
2026-05-05 17:48 -21.93196 166.72529 6989 ft 168 kts 313°
2026-05-05 17:48 -21.92420 166.71595 6983 ft 168 kts 313°
2026-05-05 17:48 -21.91643 166.70660 6976 ft 168 kts 313°
2026-05-05 17:49 -21.90864 166.69725 6972 ft 168 kts 313°
2026-05-05 17:49 -21.90087 166.68790 6970 ft 168 kts 313°
2026-05-05 17:49 -21.89309 166.67856 6966 ft 168 kts 313°
2026-05-05 17:49 -21.88532 166.66922 6962 ft 168 kts 313°
2026-05-05 17:50 -21.87755 166.65988 6962 ft 168 kts 313°
2026-05-05 17:50 -21.86984 166.65060 6982 ft 166 kts 313°
2026-05-05 17:50 -21.86214 166.64135 6989 ft 166 kts 313°
2026-05-05 17:50 -21.85442 166.63207 6982 ft 167 kts 313°
2026-05-05 17:51 -21.84695 166.62309 6983 ft 167 kts 313°
2026-05-05 17:51 -21.83923 166.61382 6992 ft 167 kts 313°
2026-05-05 17:51 -21.83152 166.60455 6997 ft 167 kts 313°
2026-05-05 17:51 -21.83117 166.60412 6997 ft 167 kts 313°
2026-05-05 17:52 -21.82504 166.59676 6996 ft 167 kts 313°
2026-05-05 17:52 -21.81732 166.58748 6998 ft 167 kts 313°
2026-05-05 17:52 -21.80958 166.57818 7003 ft 167 kts 313°
2026-05-05 17:53 -21.80212 166.56922 7011 ft 166 kts 313°
2026-05-05 17:53 -21.79442 166.55997 7022 ft 165 kts 313°
2026-05-05 17:53 -21.78676 166.55079 7029 ft 166 kts 313°
2026-05-05 17:53 -21.77904 166.54148 6994 ft 169 kts 312°
2026-05-05 17:54 -21.77127 166.53209 6993 ft 168 kts 312°
2026-05-05 17:54 -21.76356 166.52273 7017 ft 167 kts 312°
2026-05-05 17:54 -21.75589 166.51342 7021 ft 167 kts 312°
2026-05-05 17:54 -21.74820 166.50406 7010 ft 168 kts 312°
2026-05-05 17:55 -21.74049 166.49468 7011 ft 168 kts 312°
2026-05-05 17:55 -21.73280 166.48531 7022 ft 167 kts 312°
2026-05-05 17:55 -21.72513 166.47596 7025 ft 167 kts 312°
2026-05-05 17:55 -21.71746 166.46662 7023 ft 168 kts 312°
2026-05-05 17:56 -21.70976 166.45724 7025 ft 167 kts 312°
2026-05-05 17:56 -21.70207 166.44787 7031 ft 167 kts 312°
2026-05-05 17:56 -21.69440 166.43852 7033 ft 167 kts 312°
2026-05-05 17:56 -21.68692 166.42939 7038 ft 167 kts 312°
2026-05-05 17:57 -21.67925 166.42004 7039 ft 167 kts 312°
2026-05-05 17:57 -21.67158 166.41068 7039 ft 168 kts 312°
2026-05-05 17:57 -21.66388 166.40130 7041 ft 167 kts 312°
2026-05-05 17:57 -21.65621 166.39194 7045 ft 167 kts 312°
2026-05-05 17:58 -21.64854 166.38259 7047 ft 167 kts 312°
2026-05-05 17:58 -21.64085 166.37322 7049 ft 167 kts 312°
2026-05-05 17:58 -21.63316 166.36385 7051 ft 167 kts 312°
2026-05-05 17:58 -21.62548 166.35448 7054 ft 167 kts 312°
2026-05-05 17:59 -21.61780 166.34514 7057 ft 167 kts 312°
2026-05-05 17:59 -21.61004 166.33583 7061 ft 168 kts 313°
2026-05-05 17:59 -21.60203 166.32677 7070 ft 166 kts 314°
2026-05-05 17:59 -21.59466 166.31715 7054 ft 169 kts 309°
2026-05-05 18:00 -21.58778 166.30685 7019 ft 171 kts 306°
2026-05-05 18:00 -21.58118 166.29636 7032 ft 169 kts 304°
2026-05-05 18:00 -21.57482 166.28581 7055 ft 168 kts 303°
2026-05-05 18:00 -21.56858 166.27514 7031 ft 170 kts 303°
2026-05-05 18:01 -21.56237 166.26431 7002 ft 171 kts 302°
2026-05-05 18:01 -21.55620 166.25339 7006 ft 170 kts 302°
2026-05-05 18:01 -21.55014 166.24253 7014 ft 170 kts 302°
2026-05-05 18:01 -21.54412 166.23169 7006 ft 170 kts 302°
2026-05-05 18:02 -21.53809 166.22075 6993 ft 171 kts 301°
2026-05-05 18:02 -21.53207 166.20981 6991 ft 170 kts 301°
2026-05-05 18:02 -21.52609 166.19890 6991 ft 170 kts 301°
2026-05-05 18:02 -21.52010 166.18795 6986 ft 170 kts 301°
2026-05-05 18:03 -21.51413 166.17703 6980 ft 170 kts 301°
2026-05-05 18:03 -21.50831 166.16645 6978 ft 170 kts 302°
2026-05-05 18:03 -21.50192 166.15581 6974 ft 170 kts 305°
2026-05-05 18:03 -21.49521 166.14522 6926 ft 173 kts 306°
2026-05-05 18:04 -21.48910 166.13415 6904 ft 173 kts 300°
2026-05-05 18:04 -21.48317 166.12311 6949 ft 169 kts 302°
2026-05-05 18:04 -21.47689 166.11249 6959 ft 169 kts 303°
2026-05-05 18:04 -21.47075 166.10169 6937 ft 171 kts 302°
2026-05-05 18:05 -21.46473 166.09076 6929 ft 171 kts 301°
2026-05-05 18:05 -21.45880 166.07979 6937 ft 170 kts 301°
2026-05-05 18:05 -21.45296 166.06882 6939 ft 170 kts 300°
2026-05-05 18:05 -21.44719 166.05784 6961 ft 168 kts 300°
2026-05-05 18:06 -21.44152 166.04695 6958 ft 168 kts 300°
2026-05-05 18:06 -21.43772 166.03961 6938 ft 170 kts 300°
2026-05-05 18:06 -21.43011 166.02485 6924 ft 170 kts 300°
2026-05-05 18:06 -21.42445 166.01381 6936 ft 169 kts 300°
2026-05-05 18:07 -21.41881 166.00280 6935 ft 169 kts 300°
2026-05-05 18:07 -21.41317 165.99178 6924 ft 169 kts 300°
2026-05-05 18:07 -21.40753 165.98075 6920 ft 169 kts 300°
2026-05-05 18:07 -21.40202 165.96994 6922 ft 169 kts 300°
2026-05-05 18:08 -21.39667 165.95946 6923 ft 169 kts 300°
2026-05-05 18:08 -21.39130 165.94893 6924 ft 169 kts 300°
2026-05-05 18:08 -21.38565 165.93786 6917 ft 169 kts 300°
2026-05-05 18:08 -21.38002 165.92681 6912 ft 169 kts 300°
2026-05-05 18:09 -21.37438 165.91576 6913 ft 169 kts 300°
2026-05-05 18:09 -21.37319 165.91342 6913 ft 169 kts 300°
2026-05-05 18:10 -21.37213 165.91134 6913 ft 169 kts 300°
2026-05-05 18:10 -21.36657 165.90042 6875 ft 165 kts 300°
2026-05-05 18:10 -21.36104 165.88955 6666 ft 170 kts 300°
2026-05-05 18:11 -21.35532 165.87843 6456 ft 175 kts 299°
2026-05-05 18:11 -21.34945 165.86722 6366 ft 170 kts 299°
2026-05-05 18:11 -21.34370 165.85631 6286 ft 167 kts 299°
2026-05-05 18:11 -21.33793 165.84542 6138 ft 169 kts 300°
2026-05-05 18:12 -21.33208 165.83443 5975 ft 170 kts 300°
2026-05-05 18:12 -21.32581 165.82376 5836 ft 170 kts 304°
2026-05-05 18:12 -21.31888 165.81333 5633 ft 173 kts 306°
2026-05-05 18:12 -21.31297 165.80224 5508 ft 170 kts 297°
2026-05-05 18:13 -21.30832 165.79061 5359 ft 169 kts 290°
2026-05-05 18:13 -21.30465 165.77890 5286 ft 163 kts 284°
2026-05-05 18:13 -21.30174 165.76741 5095 ft 159 kts 281°
2026-05-05 18:13 -21.29925 165.75557 4705 ft 168 kts 278°
2026-05-05 18:14 -21.29740 165.74296 4323 ft 172 kts 274°
2026-05-05 18:14 -21.29641 165.73030 3973 ft 170 kts 269°
2026-05-05 18:14 -21.29658 165.71760 3541 ft 173 kts 264°
2026-05-05 18:14 -21.29762 165.70458 2978 ft 180 kts 260°
2026-05-05 18:15 -21.29936 165.69077 2238 ft 193 kts 258°
2026-05-05 18:15 -21.29968 165.67653 1868 ft 185 kts 273°
2026-05-05 18:15 -21.29561 165.66403 1589 ft 171 kts 292°
2026-05-05 18:15 -21.29040 165.65266 1048 ft 158 kts 296°
2026-05-05 18:16 -21.28449 165.64406 681 ft 129 kts 310°
2026-05-05 18:16 -21.27898 165.63770 453 ft 107 kts 315°
2026-05-05 18:16 -21.27365 165.63234 280 ft 103 kts 318°
2026-05-05 18:16 -21.26836 165.62743 135 ft 99 kts 319°
2026-05-05 18:17 -21.26319 165.62311 43 ft 90 kts 322°
2026-05-05 18:17 -21.25866 165.61938 21 ft 63 kts 323°
2026-05-05 18:17 -21.25732 165.61829 20 ft 0 kts 326°
2026-05-05 18:17 -21.25727 165.61825 20 ft 1 kts 311°
2026-05-05 18:18 -21.25726 165.61824 20 ft 0 kts 310°
2026-05-05 18:18 -21.25726 165.61823 20 ft 0 kts 309°
2026-05-05 18:19 -21.25722 165.61818 20 ft 0 kts 295°
2026-05-05 18:22 -21.25715 165.61804 20 ft 5 kts 308°
2026-05-05 18:22 -21.25676 165.61781 20 ft 9 kts 328°
2026-05-05 18:22 -21.25617 165.61731 20 ft 13 kts 318°
2026-05-05 18:22 -21.25535 165.61663 20 ft 15 kts 296°
2026-05-05 18:23 -21.25529 165.61613 20 ft 6 kts 277°
2026-05-05 18:23 -21.25500 165.61555 20 ft 9 kts 317°
2026-05-05 18:23 -21.25440 165.61502 20 ft 14 kts 320°
2026-05-05 18:23 -21.25343 165.61419 20 ft 17 kts 321°
2026-05-05 18:24 -21.25277 165.61360 20 ft 12 kts 321°
2026-05-05 18:24 -21.25214 165.61309 20 ft 11 kts 323°
2026-05-05 18:24 -21.25171 165.61268 20 ft 5 kts 296°
2026-05-05 18:24 -21.25170 165.61239 20 ft 5 kts 245°
2026-05-05 18:25 -21.25181 165.61193 20 ft 6 kts 258°
2026-05-05 18:25 -21.25205 165.61177 20 ft 11 kts 168°
2026-05-05 18:25 -21.25229 165.61209 20 ft 4 kts 83°
2026-05-05 18:25 -21.25229 165.61211 20 ft 0 kts 82°
2026-05-05 18:26 -22.59092 167.46088 325 ft 0 kts 294°
2026-05-05 18:51 -22.59075 167.46046 324 ft 26 kts 294°
2026-05-05 18:51 -22.58911 167.45663 324 ft 83 kts 290°
2026-05-05 18:51 -22.58609 167.44935 325 ft 126 kts 295°
2026-05-05 18:52 -22.58196 167.43987 364 ft 150 kts 299°
2026-05-05 18:52 -22.57635 167.42948 351 ft 170 kts 304°
2026-05-05 18:52 -22.56990 167.41823 514 ft 184 kts 306°
2026-05-05 18:52 -22.56254 167.40657 817 ft 192 kts 308°
2026-05-05 18:53 -22.55442 167.39490 1161 ft 196 kts 316°
2026-05-05 18:53 -22.54341 167.38702 1617 ft 188 kts 342°
2026-05-05 18:53 -22.53086 167.38481 2033 ft 183 kts
2026-05-05 18:53 -22.51857 167.38867 2200 ft 188 kts 33°
2026-05-05 18:54 -22.50972 167.39878 2443 ft 187 kts 64°
2026-05-05 18:54 -22.50746 167.41238 2785 ft 186 kts 89°
2026-05-05 18:54 -22.50722 167.42688 2950 ft 200 kts 92°
2026-05-05 18:54 -22.50869 167.44206 3226 ft 206 kts 99°
2026-05-05 18:55 -22.51247 167.45733 3365 ft 218 kts 105°
2026-05-05 18:55 -22.51709 167.47366 2925 ft 239 kts 106°
2026-05-05 18:55 -22.52210 167.49095 2787 ft 237 kts 107°
2026-05-05 18:55 -22.52687 167.50708 3128 ft 215 kts 107°
2026-05-05 18:56 -22.53162 167.52175 3324 ft 203 kts 108°
2026-05-05 18:56 -22.53662 167.53618 3145 ft 210 kts 109°
2026-05-05 18:56 -22.54182 167.55094 2855 ft 209 kts 110°
2026-05-05 18:56 -22.54877 167.56465 2505 ft 211 kts 126°
2026-05-05 18:57 -22.56034 167.57415 2262 ft 209 kts 149°
2026-05-05 18:57 -22.57397 167.57787 2232 ft 197 kts 169°
2026-05-05 18:57 -22.58737 167.57754 2040 ft 193 kts 179°
2026-05-05 18:57 -22.60070 167.57569 1741 ft 192 kts 186°
2026-05-05 18:58 -22.61213 167.56911 1624 ft 185 kts 220°
2026-05-05 18:58 -22.61776 167.55732 1565 ft 172 kts 255°
2026-05-05 18:58 -22.61822 167.54496 1660 ft 157 kts 273°
2026-05-05 18:58 -22.61648 167.53303 1587 ft 172 kts 283°
2026-05-05 18:59 -22.61295 167.52073 1727 ft 164 kts 291°
2026-05-05 18:59 -22.60901 167.50873 1544 ft 178 kts 291°
2026-05-05 18:59 -22.60505 167.49641 1296 ft 167 kts 290°
2026-05-05 18:59 -22.60102 167.48492 958 ft 161 kts 295°
2026-05-05 19:00 -22.59638 167.47421 628 ft 149 kts 297°
2026-05-05 19:00 -22.59242 167.46411 370 ft 141 kts 295°
2026-05-05 19:00 -22.58869 167.45559 325 ft 105 kts 292°
2026-05-05 19:00 -22.58638 167.45030 324 ft 48 kts 302°
2026-05-05 19:01 -22.58566 167.44900 324 ft 0 kts 257°
2026-05-05 19:01 -22.58568 167.44895 324 ft 1 kts 221°
2026-05-05 19:01 -22.58579 167.44896 324 ft 4 kts 148°
2026-05-05 19:01 -22.58632 167.44985 324 ft 20 kts 116°
2026-05-05 19:02 -22.58662 167.45057 324 ft 5 kts 115°
2026-05-05 19:02 -22.58667 167.45069 324 ft 0 kts 115°